Weather History for Wadesboro, NC

Change the Weather History Date:

Thursday, September 12, 2013

  Actual Average (KCLT) Record (KCLT)
Temperature  
Mean Temperature 80 °F 72 °F  
Max Temperature 91 °F 83 °F 95 °F (1925)
Min Temperature 68 °F 62 °F 45 °F (1917)
Degree Days  
Heating Degree Days 0 0  
Month to date heating degree days 0  
Since 1 July heating degree days 0  
Cooling Degree Days 14 8  
Month to date cooling degree days 108  
Year to date cooling degree days 1385  
Growing Degree Days 30 (Base 50)    
Moisture  
Dew Point 65 °F    
Average Humidity 65    
Maximum Humidity 90    
Minimum Humidity 39    
Precipitation  
Precipitation 0.00 in 0.09 in 1.76 in (1884)
Month to date precipitation 1.29  
Year to date precipitation 29.89  
Snow  
Snow 0.00 in 0.00 in 0.00 in ()
Month to date snowfall 0.0  
Since 1 July snowfall 0.0  
Since 1 September snowfall 0.0  
Snow Depth -    
Sea Level Pressure  
Sea Level Pressure 29.97 in    
Wind  
Wind Speed 2 mph (SSW)    
Max Wind Speed 8 mph    
Max Gust Speed -    
Visibility 8 miles    
Events      
T = Trace of Precipitation, MM = Missing Value Source: NWS Daily Summary

Daily Weather History Graph

Daily Weather History Graph

Search for Another Location

Airport:

Trip Planner

Search our weather history database for the weather conditions in past years. The results will help you decide how hot, cold, wet, or windy it might be!

Date:

Astronomy

Sep. 12, 2013 Rise Set
Actual Time 7:01 AM EDT 7:31 PM EDT
Civil Twilight 6:35 AM EDT 7:56 PM EDT
Nautical Twilight 6:05 AM EDT 8:26 PM EDT
Astronomical Twilight 5:35 AM EDT 8:56 PM EDT
Moon 2:12 PM EDT (9/12) No Moon Set
Length of Visible Light 13h 20m
Length of Day
12h 30m
Waxing Crescent, 50% of the Moon is Illuminated
Sep 12
Waxing Crescent
Sep 12
First Quarter
Sep 19
Full
Sep 26
Last Quarter
Oct 4
New

Hourly Weather History & Observations

Time (EDT) Temp. Heat Index Dew Point Humidity Pressure Visibility Wind Dir Wind Speed Gust Speed Precip Events Conditions
12:15 AM 73.4 °F - 66.9 °F 80% 30.09 in 10.0 mi Calm Calm - N/A   Overcast
12:35 AM 73.6 °F - 66.2 °F 78% 30.08 in 10.0 mi Calm Calm - N/A   Mostly Cloudy
12:55 AM 74.7 °F - 65.8 °F 74% 30.08 in 10.0 mi Calm Calm - N/A   Mostly Cloudy
1:15 AM 74.1 °F - 65.8 °F 75% 30.08 in 10.0 mi Calm Calm - N/A   Scattered Clouds
1:35 AM 71.6 °F - 66.0 °F 82% 30.08 in 10.0 mi Calm Calm - N/A   Clear
1:55 AM 73.4 °F - 65.8 °F 77% 30.07 in 10.0 mi Calm Calm - N/A   Clear
2:15 AM 71.2 °F - 66.0 °F 84% 30.07 in 10.0 mi Calm Calm - N/A   Clear
2:35 AM 72.5 °F - 65.5 °F 79% 30.07 in 10.0 mi Calm Calm - N/A   Mostly Cloudy
2:55 AM 72.7 °F - 65.7 °F 79% 30.06 in 10.0 mi South 3.5 mph - N/A   Overcast
3:15 AM 73.4 °F - 65.3 °F 76% 30.05 in 10.0 mi South 3.5 mph - N/A   Overcast
3:35 AM 73.4 °F - 65.3 °F 76% 30.05 in 10.0 mi SSW 3.5 mph - N/A   Mostly Cloudy
3:55 AM 73.2 °F - 65.5 °F 77% 30.05 in 10.0 mi Calm Calm - N/A   Mostly Cloudy
4:15 AM 72.5 °F - 65.7 °F 79% 30.05 in 10.0 mi Calm Calm - N/A   Mostly Cloudy
4:35 AM 72.0 °F - 65.8 °F 81% 30.05 in 10.0 mi Calm Calm - N/A   Mostly Cloudy
4:55 AM 72.0 °F - 65.8 °F 81% 30.05 in 10.0 mi Calm Calm - N/A   Overcast
5:15 AM 71.1 °F - 66.2 °F 85% 30.05 in 10.0 mi Calm Calm - N/A   Scattered Clouds
5:35 AM 70.7 °F - 65.7 °F 84% 30.05 in 10.0 mi Calm Calm - N/A   Clear
5:55 AM 69.6 °F - 65.3 °F 86% 30.05 in 10.0 mi Calm Calm - N/A   Mostly Cloudy
6:15 AM 68.4 °F - 65.3 °F 90% 30.05 in 7.0 mi Calm Calm - N/A   Mostly Cloudy
6:35 AM 69.1 °F - 65.8 °F 89% 30.05 in 7.0 mi Calm Calm - N/A   Overcast
6:55 AM 69.1 °F - 65.3 °F 88% 30.05 in 7.0 mi Calm Calm - N/A   Scattered Clouds
7:15 AM 69.4 °F - 66.2 °F 89% 30.05 in 7.0 mi Calm Calm - N/A   Mostly Cloudy
7:35 AM 69.8 °F - 65.8 °F 87% 30.04 in 7.0 mi Calm Calm - N/A   Scattered Clouds
7:55 AM 70.2 °F - 66.2 °F 87% 30.04 in 7.0 mi Calm Calm - N/A   Mostly Cloudy
8:15 AM 72.0 °F - 66.4 °F 83% 30.04 in 10.0 mi SSW 3.5 mph - N/A   Mostly Cloudy
8:35 AM 72.5 °F - 66.6 °F 82% 30.04 in 10.0 mi Calm Calm - N/A   Mostly Cloudy
8:55 AM 73.6 °F - 66.6 °F 79% 30.04 in 10.0 mi SSW 4.6 mph - N/A   Scattered Clouds
9:15 AM 74.8 °F - 66.4 °F 75% 30.04 in 10.0 mi SSW 3.5 mph - N/A   Clear
9:35 AM 77.0 °F - 65.3 °F 67% 30.04 in 10.0 mi West 4.6 mph - N/A   Clear
9:55 AM 77.5 °F - 65.3 °F 66% 30.03 in 10.0 mi SSW 4.6 mph - N/A   Scattered Clouds
10:15 AM 77.9 °F - 65.1 °F 65% 30.03 in 10.0 mi Calm Calm - N/A   Scattered Clouds
10:35 AM 78.8 °F - 65.7 °F 64% 30.03 in 10.0 mi Calm Calm - N/A   Scattered Clouds
10:55 AM 81.0 °F 82.5 °F 64.0 °F 56% 30.02 in 10.0 mi SSW 5.8 mph - N/A   Scattered Clouds
11:15 AM 82.8 °F 84.0 °F 63.3 °F 52% 30.02 in 10.0 mi SSW 3.5 mph - N/A   Scattered Clouds
11:35 AM 84.7 °F 85.6 °F 62.8 °F 48% 30.01 in 10.0 mi SW 6.9 mph - N/A   Scattered Clouds
11:55 AM 85.5 °F 86.3 °F 63.0 °F 47% 30.01 in 10.0 mi SSW 4.6 mph - N/A   Mostly Cloudy
12:15 PM 88.3 °F 89.2 °F 63.3 °F 43% 30.00 in 10.0 mi West 5.8 mph - N/A   Mostly Cloudy
12:35 PM 88.0 °F 88.7 °F 63.1 °F 43% 29.99 in 10.0 mi SW 4.6 mph - N/A   Mostly Cloudy
12:55 PM 87.3 °F 87.7 °F 62.1 °F 43% 29.98 in 10.0 mi SSW 5.8 mph - N/A   Mostly Cloudy
1:15 PM 88.9 °F 89.4 °F 62.4 °F 41% 29.98 in 10.0 mi SSW 6.9 mph - N/A   Mostly Cloudy
1:35 PM 90.0 °F 91.0 °F 63.3 °F 41% 29.97 in 10.0 mi SW 3.5 mph - N/A   Scattered Clouds
1:55 PM 90.3 °F 91.5 °F 63.9 °F 41% 29.96 in 10.0 mi SW 4.6 mph - N/A   Clear
2:15 PM 90.7 °F 92.1 °F 63.7 °F 41% 29.95 in 10.0 mi SSW 4.6 mph - N/A   Scattered Clouds
2:35 PM 91.2 °F 92.5 °F 63.9 °F 40% 29.93 in 10.0 mi SW 3.5 mph - N/A   Scattered Clouds
2:55 PM 91.4 °F 92.8 °F 64.0 °F 40% 29.92 in 10.0 mi SW 4.6 mph - N/A   Scattered Clouds
3:15 PM 91.4 °F 92.4 °F 63.5 °F 39% 29.90 in 10.0 mi SSW 8.1 mph - N/A   Scattered Clouds
3:35 PM 91.0 °F 92.2 °F 63.5 °F 40% 29.89 in 7.0 mi SW 5.8 mph - N/A   Scattered Clouds
3:55 PM 91.6 °F 92.7 °F 63.5 °F 39% 29.88 in 7.0 mi SSW 6.9 mph - N/A   Scattered Clouds
4:15 PM 90.3 °F 91.5 °F 63.7 °F 41% 29.88 in 5.0 mi South 6.9 mph - N/A   Haze
4:35 PM 90.5 °F 91.8 °F 64.0 °F 41% 29.87 in 5.0 mi SSW 8.1 mph - N/A   Haze
4:55 PM 90.5 °F 91.8 °F 64.0 °F 41% 29.86 in 7.0 mi SW 4.6 mph - N/A   Scattered Clouds
5:15 PM 90.5 °F 91.8 °F 64.0 °F 41% 29.86 in 7.0 mi SSW 5.8 mph - N/A   Scattered Clouds
5:35 PM 89.4 °F 90.8 °F 64.4 °F 43% 29.85 in 7.0 mi SW 8.1 mph - N/A   Scattered Clouds
5:55 PM 88.7 °F 90.1 °F 64.4 °F 44% 29.85 in 7.0 mi SSW 4.6 mph - N/A   Clear
6:15 PM 87.6 °F 89.1 °F 64.4 °F 46% 29.85 in 7.0 mi SW 3.5 mph - N/A   Clear
6:35 PM 86.4 °F 87.8 °F 64.8 °F 48% 29.85 in 7.0 mi South 3.5 mph - N/A   Clear
6:55 PM 85.3 °F 87.1 °F 65.3 °F 51% 29.85 in 5.0 mi South 3.5 mph - N/A   Haze
7:15 PM 84.0 °F 86.3 °F 66.2 °F 55% 29.86 in 7.0 mi SSW 3.5 mph - N/A   Clear
7:35 PM 82.6 °F 85.1 °F 66.7 °F 59% 29.85 in 7.0 mi Calm Calm - N/A   Clear
7:55 PM 81.5 °F 83.9 °F 67.1 °F 61% 29.85 in 7.0 mi NNW 8.1 mph - N/A   Mostly Cloudy
8:15 PM 80.1 °F 82.1 °F 66.2 °F 62% 29.85 in 7.0 mi Calm Calm - N/A   Scattered Clouds
8:35 PM 79.2 °F - 66.7 °F 66% 29.85 in 7.0 mi Calm Calm - N/A   Clear
8:55 PM 79.2 °F - 66.6 °F 65% 29.86 in 7.0 mi Calm Calm - N/A   Clear
9:15 PM 78.4 °F - 66.6 °F 67% 29.87 in 7.0 mi Calm Calm - N/A   Clear
9:35 PM 77.5 °F - 67.3 °F 71% 29.86 in 5.0 mi Calm Calm - N/A   Haze
9:55 PM 76.1 °F - 68.5 °F 77% 29.87 in 5.0 mi Calm Calm - N/A   Haze
10:15 PM 75.4 °F - 68.4 °F 79% 29.86 in 5.0 mi Calm Calm - N/A   Haze
10:35 PM 76.5 °F - 68.7 °F 77% 29.86 in 7.0 mi Calm Calm - N/A   Scattered Clouds
10:55 PM 76.5 °F - 69.1 °F 78% 29.86 in 7.0 mi Calm Calm - N/A   Clear
11:15 PM 76.3 °F - 68.9 °F 78% 29.85 in 7.0 mi Calm Calm - N/A   Clear
11:35 PM 76.1 °F - 68.4 °F 77% 29.85 in 7.0 mi Calm Calm - N/A   Clear
11:55 PM 75.4 °F - 68.0 °F 78% 29.85 in 7.0 mi Calm Calm - N/A   Clear